When you browse on this site, cookies collect data to enhance your experience and personalize the content and advertising you see.
Visit our Privacy Policy to learn more. By continuing to use the site, you agree to this use of cookies and data.
  • In Hungary
  • List of Countries
  • For 7 days
  • Water Temperature
  • Satellite Maps
  • Weather Map
  • News
  • Weather Widgets
  • user-avatar
    Login

    Hourly Weather Berat

    Today, 14 December, Friday

    Time Temperature Precipitation Wind Pressure Humidity
    00:00 +5°C° 0.2 mm 4 mps 743 mmHg 84%
    01:00 +5°C° 0.2 mm 4 mps 743 mmHg 85%
    02:00 +6°C° 0.3 mm 4 mps 743 mmHg 86%
    03:00 +6°C° 0.3 mm 4 mps 743 mmHg 88%
    04:00 +6°C° 0.3 mm 4 mps 743 mmHg 89%
    05:00 +7°C° 0.3 mm 4 mps 743 mmHg 89%
    06:00 +7°C° 0.3 mm 4 mps 743 mmHg 90%
    07:00 +7°C° 0.3 mm 4 mps 743 mmHg 90%
    08:00 +8°C° 0.1 mm 4 mps 743 mmHg 88%
    09:00 +11°C° 0.1 mm 4 mps 743 mmHg 85%
    10:00 +12°C° 0.1 mm 5 mps 743 mmHg 83%
    11:00 +12°C° 0.1 mm 5 mps 742 mmHg 83%
    12:00 +13°C° 0.1 mm 5 mps 742 mmHg 82%
    13:00 +13°C° 0.1 mm 5 mps 742 mmHg 82%
    14:00 +12°C° 0.2 mm 5 mps 742 mmHg 84%
    15:00 +12°C° 0.2 mm 4 mps 742 mmHg 86%
    16:00 +11°C° 0.2 mm 4 mps 742 mmHg 87%
    17:00 +11°C° 0.1 mm 4 mps 742 mmHg 88%
    18:00 +10°C° 0.1 mm 4 mps 742 mmHg 88%
    19:00 +10°C° 0.1 mm 4 mps 742 mmHg 89%
    20:00 +10°C° 0 mm 4 mps 742 mmHg 87%
    21:00 +8°C° 0 mm 4 mps 742 mmHg 86%
    22:00 +8°C° 0 mm 4 mps 742 mmHg 85%
    23:00 +8°C° 0 mm 4 mps 742 mmHg 84%

    Tomorrow, 15 December, Saturday

    Time Temperature Precipitation Wind Pressure Humidity
    00:00 +8°C° 0 mm 4 mps 742 mmHg 83%
    01:00 +8°C° 0 mm 4 mps 742 mmHg 82%
    02:00 +8°C° 0 mm 4 mps 741 mmHg 83%
    03:00 +8°C° 0 mm 4 mps 741 mmHg 83%
    04:00 +8°C° 0 mm 4 mps 741 mmHg 83%
    05:00 +8°C° 0.2 mm 4 mps 741 mmHg 84%
    06:00 +8°C° 0.2 mm 4 mps 741 mmHg 85%
    07:00 +8°C° 0.2 mm 4 mps 741 mmHg 85%
    08:00 +10°C° 0.3 mm 4 mps 741 mmHg 83%
    09:00 +11°C° 0.3 mm 4 mps 742 mmHg 81%
    10:00 +12°C° 0.3 mm 4 mps 742 mmHg 78%
    11:00 +13°C° 0.1 mm 4 mps 742 mmHg 74%
    12:00 +14°C° 0.1 mm 4 mps 741 mmHg 69%
    13:00 +15°C° 0.1 mm 4 mps 741 mmHg 64%
    14:00 +14°C° 0.3 mm 3 mps 741 mmHg 69%
    15:00 +13°C° 0.3 mm 3 mps 741 mmHg 74%
    16:00 +13°C° 0.3 mm 2 mps 741 mmHg 79%
    17:00 +12°C° 0.4 mm 2 mps 741 mmHg 80%
    18:00 +12°C° 0.4 mm 2 mps 741 mmHg 82%
    19:00 +10°C° 0.4 mm 2 mps 741 mmHg 84%
    20:00 +10°C° 0.4 mm 2 mps 741 mmHg 84%
    21:00 +10°C° 0.4 mm 2 mps 742 mmHg 84%
    22:00 +9°C° 0.4 mm 3 mps 742 mmHg 84%
    23:00 +9°C° 0.6 mm 3 mps 742 mmHg 86%

    Day after tomorrow, 16 December, Sunday

    Time Temperature Precipitation Wind Pressure Humidity
    00:00 +9°C° 0.6 mm 3 mps 742 mmHg 87%
    01:00 +9°C° 0.6 mm 3 mps 742 mmHg 88%
    02:00 +9°C° 0.9 mm 3 mps 742 mmHg 90%
    03:00 +9°C° 0.9 mm 3 mps 742 mmHg 92%
    04:00 +8°C° 0.9 mm 3 mps 742 mmHg 94%
    05:00 +8°C° 0.9 mm 3 mps 742 mmHg 94%
    06:00 +8°C° 0.9 mm 3 mps 743 mmHg 94%
    07:00 +8°C° 0.9 mm 3 mps 743 mmHg 95%
    08:00 +8°C° 0.4 mm 3 mps 743 mmHg 92%
    09:00 +9°C° 0.4 mm 3 mps 743 mmHg 89%
    10:00 +9°C° 0.4 mm 2 mps 744 mmHg 86%
    11:00 +9°C° 0.2 mm 3 mps 744 mmHg 85%
    12:00 +9°C° 0.2 mm 3 mps 744 mmHg 83%
    13:00 +9°C° 0.2 mm 3 mps 744 mmHg 82%
    14:00 +9°C° 0.1 mm 3 mps 744 mmHg 83%
    15:00 +9°C° 0.1 mm 3 mps 744 mmHg 84%
    16:00 +8°C° 0.1 mm 2 mps 745 mmHg 85%
    17:00 +8°C° 0 mm 2 mps 745 mmHg 86%
    18:00 +7°C° 0 mm 2 mps 746 mmHg 87%
    19:00 +8°C° 0 mm 1 mps 746 mmHg 88%
    20:00 +8°C° 0 mm 1 mps 746 mmHg 88%
    21:00 +8°C° 0 mm 1 mps 747 mmHg 88%
    22:00 +8°C° 0 mm 1 mps 747 mmHg 88%
    23:00 +8°C° 0 mm 1 mps 747 mmHg 88%

    17 December, Monday

    Time Temperature Precipitation Wind Pressure Humidity
    00:00 +8°C° 0 mm 1 mps 747 mmHg 88%
    01:00 +8°C° 0 mm 1 mps 747 mmHg 87%
    02:00 +8°C° 0 mm 1 mps 747 mmHg 87%
    03:00 +8°C° 0 mm 1 mps 747 mmHg 86%
    04:00 +8°C° 0 mm 1 mps 747 mmHg 85%
    05:00 +8°C° 0 mm 1 mps 747 mmHg 85%
    06:00 +9°C° 0 mm 1 mps 747 mmHg 85%
    07:00 +9°C° 0 mm 1 mps 747 mmHg 84%
    08:00 +10°C° 0 mm 1 mps 747 mmHg 81%
    09:00 +11°C° 0 mm 1 mps 747 mmHg 79%
    10:00 +12°C° 0 mm 1 mps 747 mmHg 76%
    11:00 +12°C° 0 mm 1 mps 747 mmHg 74%
    12:00 +13°C° 0 mm 2 mps 747 mmHg 73%
    13:00 +13°C° 0 mm 2 mps 746 mmHg 72%
    14:00 +13°C° 0 mm 2 mps 746 mmHg 75%
    15:00 +12°C° 0 mm 2 mps 746 mmHg 79%
    16:00 +10°C° 0 mm 2 mps 746 mmHg 83%
    17:00 +10°C° 0.1 mm 2 mps 746 mmHg 84%
    18:00 +10°C° 0.1 mm 2 mps 746 mmHg 86%
    19:00 +10°C° 0.1 mm 2 mps 746 mmHg 87%
    20:00 +10°C° 0.4 mm 3 mps 747 mmHg 87%
    21:00 +10°C° 0.4 mm 3 mps 747 mmHg 88%
    22:00 +10°C° 0.4 mm 3 mps 747 mmHg 89%
    23:00 +9°C° 0.3 mm 3 mps 746 mmHg 89%

    18 December, Tuesday

    Time Temperature Precipitation Wind Pressure Humidity
    00:00 +9°C° 0.3 mm 3 mps 746 mmHg 88%
    01:00 +9°C° 0.3 mm 3 mps 746 mmHg 88%
    02:00 +9°C° 0.3 mm 3 mps 746 mmHg 88%
    03:00 +9°C° 0.3 mm 3 mps 746 mmHg 88%
    04:00 +9°C° 0.3 mm 3 mps 746 mmHg 88%
    05:00 +9°C° 0.3 mm 3 mps 746 mmHg 88%
    06:00 +9°C° 0.3 mm 2 mps 746 mmHg 88%
    07:00 +9°C° 0.3 mm 2 mps 746 mmHg 89%
    08:00 +10°C° 0.5 mm 2 mps 746 mmHg 87%
    09:00 +10°C° 0.5 mm 2 mps 746 mmHg 85%
    10:00 +12°C° 0.5 mm 2 mps 747 mmHg 83%
    11:00 +12°C° 0.8 mm 2 mps 746 mmHg 82%
    12:00 +12°C° 0.8 mm 2 mps 746 mmHg 81%
    13:00 +12°C° 0.8 mm 2 mps 746 mmHg 80%
    14:00 +12°C° 0.6 mm 2 mps 746 mmHg 81%
    15:00 +10°C° 0.6 mm 3 mps 746 mmHg 83%
    16:00 +10°C° 0.6 mm 3 mps 746 mmHg 84%
    17:00 +9°C° 0.3 mm 3 mps 747 mmHg 84%
    18:00 +9°C° 0.3 mm 3 mps 747 mmHg 84%
    19:00 +8°C° 0.3 mm 3 mps 747 mmHg 85%
    20:00 +8°C° 0.1 mm 3 mps 748 mmHg 84%
    21:00 +7°C° 0.1 mm 3 mps 748 mmHg 83%
    22:00 +7°C° 0.1 mm 3 mps 749 mmHg 83%
    23:00 +5°C° 0 mm 3 mps 749 mmHg 83%

    19 December, Wednesday

    Time Temperature Precipitation Wind Pressure Humidity
    00:00 +5°C° 0 mm 3 mps 749 mmHg 83%
    01:00 +4°C° 0 mm 3 mps 749 mmHg 83%
    02:00 +4°C° 0 mm 3 mps 749 mmHg 82%
    03:00 +4°C° 0 mm 3 mps 750 mmHg 82%
    04:00 +3°C° 0 mm 3 mps 750 mmHg 82%
    05:00 +3°C° 0 mm 3 mps 750 mmHg 81%
    06:00 +3°C° 0 mm 3 mps 751 mmHg 80%
    07:00 +3°C° 0 mm 3 mps 751 mmHg 80%
    08:00 +6°C° 0 mm 2 mps 751 mmHg 76%
    09:00 +8°C° 0 mm 2 mps 751 mmHg 72%
    10:00 +9°C° 0 mm 2 mps 751 mmHg 68%
    11:00 +10°C° 0 mm 2 mps 751 mmHg 66%
    12:00 +12°C° 0 mm 2 mps 751 mmHg 64%
    13:00 +13°C° 0 mm 2 mps 750 mmHg 62%
    14:00 +12°C° 0 mm 2 mps 750 mmHg 66%
    15:00 +10°C° 0 mm 2 mps 750 mmHg 70%
    16:00 +9°C° 0 mm 2 mps 750 mmHg 74%
    17:00 +8°C° 0 mm 2 mps 751 mmHg 75%
    18:00 +8°C° 0 mm 2 mps 751 mmHg 77%
    19:00 +7°C° 0 mm 2 mps 751 mmHg 78%
    20:00 +7°C° 0 mm 2 mps 751 mmHg 77%
    21:00 +7°C° 0 mm 2 mps 751 mmHg 75%
    22:00 +7°C° 0 mm 2 mps 751 mmHg 74%
    23:00 +7°C° 0 mm 2 mps 751 mmHg 73%
    Show more